QPF
0.15 0.22 0.13 0.08 0.08 0.09 0.10 0.08 0.08 0.10 0.11 0.09 0.09 0.10 0.13 0.15 0.16 0.17 0.17 0.16 0.13 0.12 0.11 0.10 0.09 0.08 0.09 0.11 0.12 0.14 0.15 0.17 0.18 0.17 0.16 0.14 0.12 0.13 0.16 0.15 0.15 0.13 0.12
0.28 0.21 0.12 0.10 0.08 0.09 0.11 0.12 0.14 0.15 0.15 0.15 0.14 0.15 0.18 0.21 0.20 0.17 0.16 0.17 0.16 0.16 0.16 0.15 0.13 0.12 0.11 0.11 0.13 0.16 0.16 0.17 0.18 0.18 0.21 0.20 0.16 0.14 0.12 0.12 0.12 0.11 0.09
0.33 0.24 0.15 0.13 0.12 0.12 0.12 0.12 0.15 0.18 0.20 0.21 0.21 0.21 0.21 0.22 0.25 0.27 0.25 0.22 0.21 0.21 0.20 0.17 0.15 0.14 0.12 0.12 0.11 0.13 0.14 0.14 0.15 0.17 0.19 0.20 0.20 0.17 0.12 0.10 0.07 0.07 0.07
0.19 0.19 0.20 0.17 0.15 0.14 0.11 0.11 0.13 0.16 0.19 0.22 0.22 0.22 0.24 0.27 0.30 0.34 0.32 0.31 0.27 0.23 0.19 0.16 0.13 0.12 0.11 0.11 0.10 0.09 0.10 0.11 0.10 0.09 0.10 0.11 0.12 0.13 0.10 0.06 0.06 0.06 0.05
0.10 0.14 0.11 0.12 0.14 0.14 0.13 0.13 0.14 0.15 0.16 0.17 0.21 0.25 0.30 0.35 0.37 0.36 0.34 0.34 0.29 0.20 0.16 0.14 0.11 0.09 0.07 0.07 0.07 0.07 0.08 0.09 0.09 0.09 0.08 0.08 0.08 0.09 0.08 0.07 0.06 0.05 0.04
0.04 0.07 0.05 0.04 0.06 0.09 0.09 0.10 0.09 0.09 0.10 0.11 0.14 0.20 0.27 0.29 0.29 0.29 0.28 0.26 0.22 0.18 0.16 0.13 0.11 0.09 0.08 0.09 0.08 0.07 0.07 0.08 0.09 0.09 0.08 0.07 0.07 0.08 0.08 0.08 0.06 0.05 0.04
0.02 0.02 0.02 0.02 0.02 0.03 0.03 0.04 0.05 0.06 0.08 0.09 0.11 0.15 0.20 0.22 0.23 0.23 0.23 0.23 0.19 0.15 0.12 0.11 0.10 0.08 0.07 0.07 0.08 0.08 0.07 0.07 0.07 0.08 0.08 0.07 0.07 0.07 0.06 0.06 0.05 0.04 0.03
0.01 0.01 0.01 0.01 0.01 0.01 0.03 0.04 0.04 0.05 0.05 0.06 0.08 0.10 0.13 0.14 0.16 0.18 0.17 0.14 0.12 0.10 0.09 0.06 0.05 0.05 0.05 0.05 0.05 0.06 0.06 0.06 0.06 0.05 0.05 0.05 0.05 0.04 0.04 0.05 0.05 0.04 0.04
0.01 0.01 0.01 0.01 0.01 0.01 0.02 0.02 0.02 0.02 0.03 0.03 0.05 0.06 0.07 0.09 0.09 0.08 0.08 0.08 0.08 0.07 0.05 0.04 0.04 0.04 0.04 0.05 0.05 0.04 0.05 0.05 0.05 0.05 0.04 0.04 0.03 0.03 0.03 0.03 0.03 0.03 0.03
0.01 0.01 0.02 0.02 0.01 0.01 0.01 0.01 0.01 0.01 0.01 0.02 0.03 0.03 0.03 0.04 0.04 0.05 0.06 0.07 0.07 0.06 0.05 0.05 0.04 0.04 0.04 0.05 0.05 0.05 0.04 0.04 0.04 0.04 0.04 0.04 0.03 0.03 0.03 0.03 0.03 0.03 0.03
0.01 0.01 0.01 0.01 0.01 0.01 0.01 0.01 0.01 0.01 0.01 0.01 0.01 0.02 0.02 0.03 0.03 0.04 0.05 0.05 0.05 0.04 0.04 0.04 0.04 0.04 0.04 0.05 0.05 0.05 0.05 0.05 0.05 0.05 0.05 0.04 0.04 0.04 0.04 0.03 0.03 0.03 0.03
0.01 0.01 0.01 0.01 0.01 0.01 0.01 0.01 0.01 0.01 0.01 0.01 0.01 0.01 0.01 0.01 0.02 0.02 0.02 0.03 0.03 0.03 0.03 0.03 0.04 0.05 0.05 0.05 0.05 0.04 0.04 0.04 0.04 0.04 0.04 0.04 0.03 0.04 0.04 0.04 0.04 0.04 0.05
0.01 0.01 0.01 0.01 0.01 0.01 0.01 0.01 0.01 0.01 0.01 0.01 0.01 0.01 0.01 0.01 0.01 0.01 0.01 0.02 0.02 0.02 0.02 0.03 0.03 0.03 0.03 0.03 0.03 0.02 0.02 0.02 0.02 0.02 0.02 0.02 0.02 0.02 0.02 0.02 0.02 0.02 0.03
0.01 0.01 0.01 0.01 0.01 0.01 0.01 0.01 0.01 0.01 0.01 0.01 0.01 0.01 0.01 0.01 0.01 0.01 0.01 0.01 0.01 0.01 0.01 0.01 0.01 0.02 0.02 0.02 0.01 0.01 0.01 0.01 0.01 0.01 0.01 0.01 0.01 0.01 0.01 0.01 0.01 0.01 0.01
0.02 0.02 0.02 0.01 0.01 0.01 0.01 0.01 0.01 0.01 0.01 0.01 0.01 0.01 0.01 0.01 0.01 0.00 0.00 0.00 0.00 0.00 0.00 0.00 0.00 0.00 0.00 0.00 0.00 0.00 0.00 0.00 0.01 0.01 0.01 0.01 0.00 0.00 0.00 0.00 0.00 0.01 0.01
0.06 0.05 0.04 0.03 0.03 0.02 0.02 0.02 0.01 0.01 0.01 0.00 0.00 0.01 0.01 0.01 0.01 0.01 0.01 0.01 0.01 0.01 0.01 0.00 0.00 0.01 0.00 0.00 0.00 0.00 0.00 0.01 0.01 0.01 0.01 0.01 0.00 0.00 0.00 0.00 0.00 0.00 0.00
0.12 0.10 0.08 0.06 0.05 0.04 0.03 0.02 0.02 0.01 0.01 0.01 0.01 0.01 0.01 0.01 0.01 0.00 0.01 0.01 0.01 0.01 0.01 0.01 0.01 0.02 0.00 0.00 0.00 0.00 0.00 0.01 0.02 0.02 0.02 0.01 0.01 0.01 0.02 0.01 0.00 0.02 0.02
0.15 0.13 0.10 0.07 0.06 0.04 0.03 0.03 0.02 0.01 0.01 0.01 0.01 0.01 0.01 0.01 0.01 0.01 0.02 0.02 0.02 0.02 0.02 0.02 0.02 0.03 0.01 0.00 0.00 0.00 0.00 0.02 0.02 0.02 0.02 0.02 0.04 0.02 0.00 0.00 0.01 0.05 0.08
0.14 0.13 0.12 0.10 0.07 0.05 0.04 0.03 0.02 0.02 0.02 0.01 0.01 0.01 0.01 0.01 0.01 0.02 0.02 0.02 0.02 0.03 0.02 0.02 0.03 0.04 0.02 0.00 0.00 0.00 0.00 0.02 0.02 0.03 0.03 0.02 0.03 0.01 0.00 0.00 0.02 0.05 0.07
0.12 0.12 0.10 0.09 0.08 0.06 0.04 0.03 0.02 0.02 0.02 0.01 0.01 0.01 0.01 0.02 0.02 0.02 0.02 0.02 0.03 0.03 0.03 0.03 0.03 0.04 0.03 0.00 0.00 0.00 0.00 0.01 0.02 0.05 0.08 0.03 0.00 0.00 0.00 0.00 0.01 0.03 0.03
0.08 0.06 0.05 0.04 0.04 0.03 0.03 0.03 0.02 0.01 0.01 0.01 0.01 0.01 0.01 0.02 0.02 0.02 0.03 0.03 0.04 0.04 0.04 0.04 0.04 0.04 0.02 0.00 0.00 0.00 0.00 0.00 0.01 0.04 0.09 0.07 0.00 0.00 0.00 0.00 0.01 0.01 0.00
0.07 0.06 0.05 0.04 0.03 0.03 0.03 0.03 0.02 0.01 0.01 0.01 0.01 0.01 0.01 0.01 0.01 0.02 0.03 0.03 0.05 0.05 0.05 0.05 0.05 0.04 0.04 0.01 0.00 0.00 0.00 0.00 0.01 0.05 0.06 0.03 0.00 0.00 0.00 0.00 0.01 0.00 0.00
0.06 0.05 0.04 0.03 0.03 0.03 0.03 0.04 0.03 0.01 0.01 0.01 0.02 0.01 0.01 0.01 0.01 0.02 0.03 0.03 0.04 0.04 0.03 0.03 0.03 0.03 0.04 0.03 0.00 0.00 0.00 0.00 0.01 0.03 0.01 0.00 0.00 0.00 0.03 0.02 0.00 0.01 0.04
0.05 0.05 0.06 0.05 0.04 0.03 0.02 0.02 0.01 0.01 0.01 0.02 0.02 0.01 0.01 0.01 0.01 0.01 0.01 0.02 0.03 0.02 0.02 0.02 0.02 0.02 0.03 0.02 0.01 0.01 0.01 0.01 0.01 0.02 0.03 0.03 0.03 0.03 0.05 0.06 0.06 0.07 0.08
0.04 0.04 0.04 0.03 0.02 0.01 0.00 0.00 0.00 0.00 0.01 0.01 0.01 0.00 0.00 0.00 0.01 0.01 0.01 0.01 0.01 0.00 0.00 0.01 0.01 0.01 0.01 0.00 0.00 0.00 0.00 0.00 0.00 0.01 0.03 0.09 0.11 0.12 0.12 0.12 0.12 0.11 0.10
0.01 0.01 0.01 0.01 0.00 0.00 0.00 0.00 0.00 0.00 0.00 0.01 0.00 0.00 0.00 0.00 0.01 0.02 0.02 0.00 0.00 0.00 0.00 0.00 0.00 0.00 0.00 0.00 0.00 0.00 0.00 0.00 0.00 0.01 0.05 0.09 0.09 0.09 0.09 0.09 0.08 0.08 0.08
MSLP
1005.17 1005.55 1006.00 1006.51 1007.08 1007.70 1008.35 1009.00 1009.62 1010.20 1010.72 1011.16 1011.55 1011.90 1012.23 1012.58 1012.96 1013.40 1013.89 1014.42 1014.96 1015.49 1015.98 1016.41 1016.76 1017.04 1017.25 1017.42 1017.56 1017.67 1017.78 1017.89 1017.98 1018.06 1018.13 1018.18 1018.21 1018.24 1018.27 1018.32 1018.38 1018.47 1018.58
1006.82 1007.21 1007.61 1008.01 1008.42 1008.85 1009.28 1009.73 1010.16 1010.59 1010.99 1011.36 1011.71 1012.05 1012.41 1012.80 1013.25 1013.76 1014.33 1014.95 1015.58 1016.19 1016.74 1017.20 1017.56 1017.82 1017.99 1018.10 1018.16 1018.21 1018.26 1018.32 1018.40 1018.48 1018.57 1018.65 1018.71 1018.75 1018.78 1018.80 1018.82 1018.84 1018.88
1008.68 1009.08 1009.42 1009.70 1009.94 1010.16 1010.38 1010.61 1010.85 1011.12 1011.40 1011.69 1012.01 1012.36 1012.76 1013.22 1013.75 1014.36 1015.02 1015.73 1016.44 1017.11 1017.70 1018.19 1018.54 1018.77 1018.89 1018.92 1018.91 1018.88 1018.86 1018.88 1018.93 1019.01 1019.11 1019.21 1019.29 1019.34 1019.35 1019.34 1019.30 1019.25 1019.21
1010.53 1010.92 1011.21 1011.39 1011.50 1011.55 1011.58 1011.62 1011.69 1011.82 1012.00 1012.24 1012.55 1012.92 1013.38 1013.91 1014.52 1015.21 1015.96 1016.73 1017.49 1018.20 1018.81 1019.29 1019.62 1019.81 1019.87 1019.83 1019.74 1019.65 1019.57 1019.55 1019.57 1019.65 1019.75 1019.85 1019.94 1019.98 1019.96 1019.90 1019.80 1019.67 1019.54
1012.17 1012.56 1012.82 1012.95 1012.97 1012.92 1012.83 1012.74 1012.70 1012.73 1012.85 1013.06 1013.37 1013.77 1014.28 1014.87 1015.55 1016.30 1017.09 1017.90 1018.67 1019.37 1019.96 1020.40 1020.68 1020.81 1020.81 1020.72 1020.58 1020.43 1020.32 1020.27 1020.28 1020.34 1020.44 1020.54 1020.61 1020.62 1020.57 1020.44 1020.26 1020.04 1019.82
1013.47 1013.89 1014.17 1014.30 1014.31 1014.22 1014.09 1013.96 1013.87 1013.86 1013.95 1014.15 1014.47 1014.90 1015.44 1016.07 1016.77 1017.54 1018.33 1019.11 1019.84 1020.49 1021.02 1021.39 1021.61 1021.68 1021.63 1021.50 1021.32 1021.15 1021.02 1020.96 1020.96 1021.02 1021.10 1021.18 1021.23 1021.21 1021.10 1020.91 1020.65 1020.35 1020.02
1014.39 1014.87 1015.21 1015.41 1015.48 1015.45 1015.36 1015.25 1015.17 1015.17 1015.26 1015.47 1015.79 1016.23 1016.77 1017.39 1018.08 1018.81 1019.54 1020.25 1020.90 1021.45 1021.88 1022.17 1022.31 1022.33 1022.24 1022.08 1021.89 1021.72 1021.60 1021.53 1021.54 1021.59 1021.66 1021.72 1021.73 1021.67 1021.51 1021.27 1020.94 1020.56 1020.16
1015.01 1015.57 1016.01 1016.33 1016.52 1016.60 1016.60 1016.57 1016.56 1016.59 1016.70 1016.91 1017.23 1017.65 1018.15 1018.72 1019.34 1019.99 1020.62 1021.21 1021.74 1022.17 1022.49 1022.68 1022.75 1022.72 1022.61 1022.44 1022.27 1022.11 1022.00 1021.95 1021.96 1022.00 1022.05 1022.08 1022.06 1021.97 1021.78 1021.49 1021.12 1020.70 1020.25
1015.45 1016.10 1016.67 1017.12 1017.45 1017.68 1017.81 1017.88 1017.94 1018.02 1018.15 1018.36 1018.64 1019.01 1019.44 1019.93 1020.45 1020.97 1021.47 1021.93 1022.33 1022.64 1022.85 1022.96 1022.97 1022.90 1022.78 1022.63 1022.48 1022.35 1022.26 1022.22 1022.22 1022.25 1022.28 1022.28 1022.23 1022.11 1021.90 1021.60 1021.22 1020.80 1020.34
1015.88 1016.61 1017.28 1017.86 1018.33 1018.69 1018.94 1019.11 1019.24 1019.36 1019.49 1019.67 1019.90 1020.19 1020.53 1020.91 1021.31 1021.71 1022.09 1022.42 1022.70 1022.90 1023.03 1023.08 1023.05 1022.98 1022.87 1022.74 1022.62 1022.52 1022.45 1022.41 1022.40 1022.39 1022.39 1022.36 1022.28 1022.14 1021.92 1021.64 1021.29 1020.90 1020.47
1016.43 1017.21 1017.96 1018.62 1019.18 1019.63 1019.97 1020.21 1020.38 1020.51 1020.62 1020.76 1020.92 1021.12 1021.36 1021.63 1021.92 1022.21 1022.48 1022.73 1022.92 1023.06 1023.14 1023.16 1023.14 1023.08 1022.99 1022.90 1022.80 1022.72 1022.65 1022.60 1022.55 1022.51 1022.46 1022.38 1022.28 1022.13 1021.93 1021.68 1021.39 1021.05 1020.68
1017.18 1017.97 1018.72 1019.41 1020.01 1020.50 1020.88 1021.14 1021.32 1021.43 1021.51 1021.59 1021.68 1021.79 1021.94 1022.12 1022.33 1022.55 1022.75 1022.94 1023.10 1023.22 1023.29 1023.33 1023.33 1023.30 1023.25 1023.19 1023.11 1023.03 1022.95 1022.86 1022.77 1022.68 1022.57 1022.45 1022.31 1022.15 1021.98 1021.77 1021.54 1021.28 1020.98
1018.11 1018.86 1019.57 1020.23 1020.80 1021.28 1021.64 1021.89 1022.05 1022.13 1022.17 1022.19 1022.21 1022.26 1022.34 1022.47 1022.62 1022.79 1022.97 1023.15 1023.31 1023.45 1023.55 1023.63 1023.67 1023.68 1023.67 1023.63 1023.57 1023.48 1023.38 1023.25 1023.10 1022.93 1022.77 1022.59 1022.42 1022.26 1022.10 1021.93 1021.76 1021.56 1021.33
1019.16 1019.82 1020.44 1021.02 1021.52 1021.94 1022.25 1022.47 1022.59 1022.64 1022.64 1022.62 1022.60 1022.60 1022.65 1022.73 1022.86 1023.03 1023.21 1023.40 1023.59 1023.77 1023.92 1024.05 1024.14 1024.19 1024.21 1024.20 1024.13 1024.03 1023.89 1023.71 1023.50 1023.28 1023.05 1022.83 1022.62 1022.45 1022.29 1022.16 1022.02 1021.87 1021.69
1020.19 1020.73 1021.25 1021.72 1022.13 1022.47 1022.73 1022.90 1023.00 1023.02 1023.00 1022.96 1022.92 1022.91 1022.93 1023.00 1023.13 1023.29 1023.49 1023.71 1023.93 1024.15 1024.34 1024.51 1024.64 1024.73 1024.77 1024.77 1024.70 1024.58 1024.41 1024.18 1023.92 1023.65 1023.37 1023.11 1022.87 1022.68 1022.52 1022.39 1022.28 1022.15 1021.98
1021.07 1021.50 1021.91 1022.27 1022.60 1022.87 1023.08 1023.23 1023.31 1023.33 1023.31 1023.27 1023.24 1023.22 1023.24 1023.31 1023.44 1023.60 1023.81 1024.04 1024.28 1024.51 1024.73 1024.92 1025.08 1025.18 1025.23 1025.23 1025.16 1025.02 1024.82 1024.57 1024.28 1023.97 1023.66 1023.37 1023.11 1022.90 1022.72 1022.59 1022.46 1022.32 1022.14
1021.70 1022.05 1022.36 1022.65 1022.91 1023.14 1023.33 1023.47 1023.56 1023.61 1023.62 1023.60 1023.58 1023.58 1023.60 1023.67 1023.78 1023.93 1024.12 1024.34 1024.57 1024.80 1025.01 1025.20 1025.35 1025.46 1025.51 1025.49 1025.42 1025.27 1025.07 1024.81 1024.50 1024.18 1023.86 1023.55 1023.28 1023.04 1022.85 1022.68 1022.53 1022.35 1022.14
1022.05 1022.34 1022.60 1022.84 1023.07 1023.29 1023.48 1023.65 1023.78 1023.87 1023.92 1023.94 1023.95 1023.96 1023.98 1024.03 1024.11 1024.23 1024.39 1024.56 1024.76 1024.95 1025.13 1025.30 1025.43 1025.52 1025.56 1025.55 1025.47 1025.32 1025.12 1024.86 1024.57 1024.25 1023.92 1023.61 1023.33 1023.07 1022.85 1022.64 1022.44 1022.22 1021.96
1022.14 1022.41 1022.65 1022.88 1023.12 1023.35 1023.58 1023.80 1023.98 1024.12 1024.22 1024.28 1024.31 1024.32 1024.33 1024.36 1024.41 1024.48 1024.58 1024.70 1024.84 1024.99 1025.13 1025.26 1025.37 1025.44 1025.47 1025.45 1025.37 1025.23 1025.04 1024.79 1024.50 1024.19 1023.87 1023.56 1023.25 1022.97 1022.72 1022.47 1022.21 1021.94 1021.62
1022.05 1022.33 1022.58 1022.84 1023.10 1023.37 1023.64 1023.90 1024.14 1024.33 1024.47 1024.56 1024.61 1024.63 1024.63 1024.62 1024.63 1024.65 1024.70 1024.77 1024.86 1024.96 1025.07 1025.17 1025.26 1025.31 1025.33 1025.31 1025.23 1025.10 1024.91 1024.67 1024.38 1024.07 1023.74 1023.41 1023.08 1022.77 1022.47 1022.17 1021.86 1021.53 1021.17
1021.90 1022.20 1022.48 1022.76 1023.05 1023.36 1023.68 1023.98 1024.25 1024.48 1024.65 1024.77 1024.83 1024.84 1024.83 1024.80 1024.78 1024.77 1024.78 1024.81 1024.87 1024.95 1025.04 1025.13 1025.21 1025.26 1025.28 1025.25 1025.17 1025.03 1024.83 1024.57 1024.27 1023.94 1023.58 1023.21 1022.85 1022.49 1022.13 1021.78 1021.42 1021.05 1020.64
1021.76 1022.09 1022.39 1022.70 1023.02 1023.36 1023.70 1024.02 1024.32 1024.56 1024.75 1024.87 1024.94 1024.95 1024.93 1024.90 1024.86 1024.84 1024.84 1024.88 1024.94 1025.02 1025.12 1025.21 1025.30 1025.36 1025.38 1025.34 1025.24 1025.08 1024.85 1024.56 1024.22 1023.83 1023.42 1023.00 1022.57 1022.16 1021.75 1021.34 1020.94 1020.53 1020.10
1021.71 1022.05 1022.38 1022.70 1023.04 1023.38 1023.72 1024.04 1024.33 1024.58 1024.76 1024.89 1024.95 1024.97 1024.95 1024.93 1024.90 1024.90 1024.92 1024.98 1025.07 1025.19 1025.32 1025.44 1025.55 1025.62 1025.63 1025.58 1025.46 1025.26 1024.98 1024.62 1024.21 1023.75 1023.27 1022.77 1022.28 1021.80 1021.33 1020.89 1020.45 1020.01 1019.57
1021.77 1022.11 1022.44 1022.76 1023.09 1023.42 1023.74 1024.05 1024.31 1024.54 1024.71 1024.82 1024.88 1024.91 1024.91 1024.90 1024.91 1024.94 1025.01 1025.12 1025.26 1025.43 1025.60 1025.76 1025.89 1025.97 1025.98 1025.91 1025.74 1025.48 1025.13 1024.71 1024.21 1023.67 1023.11 1022.54 1021.98 1021.44 1020.93 1020.45 1019.99 1019.55 1019.11
1021.91 1022.24 1022.56 1022.87 1023.17 1023.47 1023.76 1024.03 1024.27 1024.46 1024.60 1024.70 1024.77 1024.80 1024.82 1024.85 1024.90 1024.98 1025.10 1025.27 1025.47 1025.68 1025.89 1026.08 1026.23 1026.31 1026.30 1026.19 1025.97 1025.65 1025.23 1024.73 1024.16 1023.55 1022.92 1022.29 1021.68 1021.11 1020.58 1020.09 1019.63 1019.19 1018.76
1022.09 1022.41 1022.71 1022.99 1023.27 1023.53 1023.78 1024.01 1024.20 1024.36 1024.48 1024.56 1024.62 1024.66 1024.70 1024.77 1024.86 1024.99 1025.16 1025.37 1025.61 1025.86 1026.10 1026.30 1026.44 1026.50 1026.46 1026.31 1026.05 1025.67 1025.19 1024.63 1024.01 1023.36 1022.69 1022.04 1021.43 1020.85 1020.33 1019.85 1019.41 1019.00 1018.60
Thickness
5753 5755 5757 5759 5762 5762 5761 5760 5759 5758 5755 5752 5749 5746 5743 5742 5740 5737 5735 5732 5728 5726 5723 5720 5717 5714 5711 5709 5707 5704 5701 5698 5695 5691 5690 5691 5692 5690 5688 5687 5685 5684 5683
5735 5736 5738 5742 5746 5747 5748 5749 5748 5748 5747 5745 5744 5741 5738 5735 5733 5729 5726 5721 5718 5715 5713 5709 5706 5703 5700 5698 5696 5694 5691 5689 5686 5681 5678 5677 5678 5681 5681 5679 5677 5675 5673
5715 5719 5723 5726 5731 5732 5733 5736 5736 5737 5738 5738 5737 5733 5730 5726 5721 5716 5712 5708 5704 5701 5699 5696 5694 5692 5690 5687 5685 5685 5683 5680 5677 5674 5671 5667 5667 5669 5670 5669 5667 5665 5663
5706 5705 5709 5713 5715 5717 5720 5723 5723 5725 5727 5729 5727 5723 5719 5712 5707 5703 5698 5693 5689 5687 5685 5683 5681 5679 5676 5675 5674 5674 5674 5672 5668 5667 5665 5661 5659 5657 5656 5656 5655 5653 5651
5697 5696 5698 5701 5703 5704 5706 5707 5708 5710 5712 5714 5715 5712 5707 5701 5695 5690 5684 5678 5674 5671 5669 5668 5667 5665 5663 5662 5661 5662 5661 5659 5656 5655 5653 5650 5649 5647 5645 5642 5641 5640 5639
5688 5687 5688 5690 5690 5692 5693 5694 5694 5695 5696 5697 5698 5697 5692 5687 5681 5676 5671 5666 5660 5656 5654 5654 5652 5650 5649 5648 5647 5647 5646 5644 5642 5640 5639 5637 5634 5632 5631 5629 5627 5625 5624
5678 5678 5677 5677 5678 5679 5679 5679 5680 5679 5679 5680 5679 5678 5674 5670 5665 5660 5656 5651 5646 5643 5640 5639 5637 5635 5634 5633 5633 5632 5630 5627 5626 5624 5622 5621 5619 5618 5617 5615 5612 5611 5610
5667 5665 5664 5665 5664 5664 5664 5664 5665 5664 5664 5663 5661 5660 5657 5653 5648 5644 5640 5636 5631 5627 5625 5624 5622 5620 5619 5618 5617 5615 5613 5611 5609 5608 5605 5604 5602 5601 5599 5597 5595 5594 5594
5657 5654 5652 5652 5651 5651 5650 5650 5650 5649 5648 5646 5644 5642 5640 5637 5633 5628 5625 5620 5617 5614 5611 5609 5607 5605 5603 5602 5600 5599 5596 5595 5592 5590 5589 5586 5585 5584 5582 5580 5578 5576 5574
5646 5644 5642 5640 5639 5638 5637 5636 5635 5634 5632 5631 5630 5627 5624 5621 5617 5613 5609 5605 5602 5599 5596 5594 5592 5590 5588 5586 5585 5583 5580 5578 5576 5575 5573 5570 5568 5566 5565 5564 5563 5560 5556
5637 5635 5633 5631 5629 5628 5626 5624 5622 5620 5617 5615 5613 5612 5608 5605 5602 5598 5595 5592 5588 5585 5583 5580 5578 5577 5574 5572 5570 5568 5566 5563 5561 5559 5557 5554 5552 5550 5548 5546 5545 5542 5539
5627 5625 5622 5620 5618 5615 5613 5611 5609 5607 5604 5601 5598 5596 5593 5590 5587 5583 5580 5577 5575 5572 5570 5567 5565 5564 5561 5558 5556 5554 5551 5549 5546 5543 5541 5538 5537 5534 5531 5528 5527 5524 5521
5615 5612 5610 5607 5605 5602 5600 5597 5595 5593 5590 5587 5584 5581 5578 5575 5572 5569 5567 5564 5562 5559 5557 5554 5553 5550 5547 5543 5541 5539 5536 5534 5531 5528 5525 5522 5520 5517 5514 5511 5510 5507 5506
5604 5601 5597 5594 5591 5589 5587 5584 5581 5579 5577 5574 5571 5568 5565 5562 5559 5556 5554 5552 5550 5548 5545 5542 5539 5535 5531 5528 5524 5522 5521 5518 5516 5514 5511 5508 5505 5501 5498 5496 5494 5492 5490
5592 5588 5585 5581 5579 5576 5574 5572 5569 5567 5565 5562 5559 5555 5552 5549 5547 5544 5542 5540 5539 5537 5534 5530 5527 5522 5517 5511 5507 5506 5506 5503 5502 5500 5497 5495 5491 5487 5483 5481 5478 5477 5476
5580 5575 5572 5568 5565 5563 5561 5559 5557 5555 5553 5551 5547 5544 5542 5539 5536 5534 5531 5529 5527 5525 5522 5518 5515 5509 5503 5496 5493 5490 5490 5489 5488 5486 5484 5482 5480 5475 5471 5469 5467 5465 5464
5568 5563 5559 5556 5553 5550 5549 5548 5546 5544 5543 5540 5537 5534 5532 5530 5528 5526 5522 5519 5517 5514 5511 5508 5503 5496 5488 5484 5481 5479 5477 5477 5476 5473 5470 5469 5468 5464 5461 5459 5459 5458 5458
5558 5553 5549 5545 5543 5541 5539 5538 5537 5534 5532 5530 5528 5525 5523 5521 5518 5515 5512 5510 5507 5504 5501 5497 5493 5486 5478 5474 5471 5469 5469 5469 5467 5464 5461 5459 5457 5453 5449 5449 5451 5452 5454
5550 5544 5540 5537 5534 5532 5530 5529 5528 5525 5524 5521 5519 5517 5515 5512 5510 5507 5504 5501 5498 5496 5493 5489 5484 5478 5470 5465 5462 5460 5461 5461 5459 5456 5454 5452 5449 5444 5442 5443 5445 5448 5450
5542 5537 5533 5529 5526 5524 5523 5521 5519 5517 5515 5513 5511 5508 5506 5503 5501 5499 5496 5494 5491 5489 5486 5482 5477 5472 5464 5458 5455 5452 5454 5453 5452 5451 5449 5446 5444 5442 5440 5439 5441 5444 5447
5534 5530 5526 5522 5520 5517 5516 5514 5511 5509 5508 5506 5503 5500 5498 5497 5495 5492 5489 5487 5485 5482 5479 5476 5471 5466 5459 5454 5450 5448 5447 5446 5445 5446 5446 5445 5443 5442 5441 5440 5441 5443 5445
5529 5525 5521 5517 5514 5512 5510 5506 5504 5503 5501 5498 5496 5494 5492 5491 5489 5486 5484 5482 5480 5478 5475 5471 5467 5462 5457 5452 5449 5446 5444 5442 5442 5444 5444 5444 5444 5444 5444 5445 5446 5447 5446
5525 5520 5516 5512 5509 5507 5504 5501 5498 5497 5494 5492 5489 5488 5486 5485 5483 5482 5480 5478 5476 5473 5471 5468 5464 5460 5455 5451 5447 5446 5445 5445 5443 5444 5444 5445 5447 5448 5449 5451 5451 5450 5451
5520 5516 5512 5507 5503 5501 5498 5495 5493 5490 5488 5486 5484 5483 5482 5480 5478 5476 5475 5472 5469 5466 5465 5463 5460 5457 5454 5448 5445 5444 5445 5445 5445 5444 5446 5448 5451 5452 5452 5453 5454 5455 5455
5517 5512 5507 5503 5499 5496 5493 5491 5488 5485 5483 5481 5480 5479 5478 5476 5474 5470 5465 5464 5458 5456 5455 5454 5453 5451 5449 5443 5440 5439 5441 5440 5441 5440 5445 5450 5452 5454 5455 5455 5456 5457 5457
5514 5508 5503 5499 5495 5492 5489 5486 5483 5481 5479 5477 5476 5476 5475 5473 5472 5468 5463 5456 5455 5451 5449 5447 5445 5445 5443 5443 5443 5442 5442 5443 5443 5442 5448 5451 5453 5454 5456 5456 5457 5457 5458